• In India
  • List of Countries
  • For 7 days
  • Water Temperature
  • Satellite Maps
  • Weather Map
  • Weather Widgets
  • user-avatar
    Login

    Hourly Weather Chachagui

    Today, 20 February, Tuesday

    Time Temperature Precipitation Wind Pressure Humidity
    00:00 +14°C° 0.4 mm 0 mps 604 mmHg 91%
    01:00 +14°C° 0 mm 0 mps 604 mmHg 90%
    02:00 +14°C° 0.3 mm 0 mps 604 mmHg 90%
    03:00 +14°C° 0.3 mm 0 mps 604 mmHg 90%
    04:00 +14°C° 0.3 mm 0 mps 603 mmHg 90%
    05:00 +14°C° 0.2 mm 0 mps 604 mmHg 89%
    06:00 +14°C° 0.2 mm 0 mps 604 mmHg 88%
    07:00 +15°C° 0 mm 0 mps 605 mmHg 85%
    08:00 +18°C° 0.1 mm 1 mps 605 mmHg 79%
    09:00 +20°C° 0.1 mm 1 mps 606 mmHg 73%
    10:00 +21°C° 0.1 mm 1 mps 607 mmHg 67%
    11:00 +22°C° 0.1 mm 1 mps 607 mmHg 67%
    12:00 +21°C° 0.1 mm 2 mps 606 mmHg 66%
    13:00 +23°C° 0.1 mm 2 mps 606 mmHg 65%
    14:00 +21°C° 0.3 mm 2 mps 606 mmHg 69%
    15:00 +21°C° 0.3 mm 2 mps 605 mmHg 73%
    16:00 +20°C° 0.3 mm 2 mps 605 mmHg 77%
    17:00 +19°C° 0.6 mm 2 mps 604 mmHg 83%
    18:00 +19°C° 0.6 mm 1 mps 604 mmHg 89%
    19:00 +18°C° 0.6 mm 1 mps 604 mmHg 95%
    20:00 +16°C° 0.5 mm 1 mps 604 mmHg 95%
    21:00 +16°C° 0.5 mm 1 mps 605 mmHg 95%
    22:00 +15°C° 0.5 mm 0 mps 605 mmHg 95%
    23:00 +15°C° 0.2 mm 0 mps 605 mmHg 95%

    Tomorrow, 21 February, Wednesday

    Time Temperature Precipitation Wind Pressure Humidity
    00:00 +14°C° 0.2 mm 0 mps 605 mmHg 94%
    01:00 +14°C° 0.2 mm 0 mps 605 mmHg 94%
    02:00 +14°C° 0 mm 0 mps 604 mmHg 93%
    03:00 +14°C° 0 mm 0 mps 604 mmHg 92%
    04:00 +13°C° 0 mm 0 mps 604 mmHg 91%
    05:00 +14°C° 0 mm 1 mps 604 mmHg 90%
    06:00 +15°C° 0 mm 1 mps 604 mmHg 88%
    07:00 +15°C° 0 mm 1 mps 604 mmHg 87%
    08:00 +18°C° 0 mm 1 mps 606 mmHg 76%
    09:00 +21°C° 0 mm 1 mps 607 mmHg 66%
    10:00 +23°C° 0 mm 1 mps 608 mmHg 56%
    11:00 +23°C° 0.2 mm 1 mps 607 mmHg 57%
    12:00 +23°C° 0.2 mm 2 mps 607 mmHg 59%
    13:00 +23°C° 0.2 mm 2 mps 607 mmHg 60%
    14:00 +23°C° 0.5 mm 2 mps 606 mmHg 64%
    15:00 +21°C° 0.5 mm 2 mps 605 mmHg 68%
    16:00 +21°C° 0.5 mm 2 mps 605 mmHg 71%
    17:00 +19°C° 0.8 mm 2 mps 604 mmHg 79%
    18:00 +19°C° 0.8 mm 1 mps 604 mmHg 86%
    19:00 +16°C° 0.8 mm 1 mps 604 mmHg 93%
    20:00 +16°C° 0.4 mm 1 mps 604 mmHg 93%
    21:00 +16°C° 0.4 mm 1 mps 605 mmHg 93%
    22:00 +14°C° 0.4 mm 0 mps 606 mmHg 94%
    23:00 +14°C° 0.4 mm 0 mps 605 mmHg 93%

    Day after tomorrow, 22 February, Thursday

    Time Temperature Precipitation Wind Pressure Humidity
    00:00 +14°C° 0.4 mm 0 mps 605 mmHg 92%
    01:00 +14°C° 0.4 mm 0 mps 605 mmHg 92%
    02:00 +14°C° 0.2 mm 0 mps 605 mmHg 91%
    03:00 +14°C° 0.2 mm 1 mps 604 mmHg 91%
    04:00 +14°C° 0.2 mm 1 mps 604 mmHg 90%
    05:00 +14°C° 0.1 mm 1 mps 604 mmHg 88%
    06:00 +14°C° 0.1 mm 1 mps 604 mmHg 86%
    07:00 +14°C° 0.1 mm 1 mps 605 mmHg 84%
    08:00 +16°C° 0 mm 1 mps 606 mmHg 74%
    09:00 +20°C° 0 mm 1 mps 607 mmHg 65%
    10:00 +21°C° 0 mm 2 mps 608 mmHg 56%
    11:00 +21°C° 0.1 mm 2 mps 608 mmHg 56%
    12:00 +23°C° 0.1 mm 2 mps 607 mmHg 57%
    13:00 +23°C° 0.1 mm 2 mps 607 mmHg 58%
    14:00 +23°C° 0.5 mm 2 mps 606 mmHg 62%
    15:00 +21°C° 0.5 mm 2 mps 605 mmHg 65%
    16:00 +21°C° 0.5 mm 2 mps 604 mmHg 69%
    17:00 +19°C° 0.8 mm 2 mps 604 mmHg 76%
    18:00 +18°C° 0.8 mm 1 mps 604 mmHg 84%
    19:00 +16°C° 0.8 mm 1 mps 604 mmHg 92%
    20:00 +16°C° 0.3 mm 1 mps 604 mmHg 92%
    21:00 +15°C° 0.3 mm 1 mps 605 mmHg 92%
    22:00 +15°C° 0.3 mm 1 mps 605 mmHg 91%
    23:00 +15°C° 0.1 mm 1 mps 605 mmHg 91%

    23 February, Friday

    Time Temperature Precipitation Wind Pressure Humidity
    00:00 +14°C° 0.1 mm 1 mps 605 mmHg 90%
    01:00 +14°C° 0.1 mm 1 mps 604 mmHg 90%
    02:00 +14°C° 0 mm 1 mps 604 mmHg 88%
    03:00 +13°C° 0 mm 1 mps 604 mmHg 86%
    04:00 +13°C° 0 mm 1 mps 603 mmHg 84%
    05:00 +13°C° 0 mm 1 mps 604 mmHg 83%
    06:00 +13°C° 0 mm 1 mps 604 mmHg 83%
    07:00 +13°C° 0 mm 1 mps 604 mmHg 82%
    08:00 +16°C° 0 mm 1 mps 605 mmHg 71%
    09:00 +20°C° 0 mm 1 mps 607 mmHg 61%
    10:00 +22°C° 0 mm 1 mps 608 mmHg 51%
    11:00 +23°C° 0.1 mm 2 mps 607 mmHg 53%
    12:00 +23°C° 0.1 mm 2 mps 607 mmHg 54%
    13:00 +23°C° 0.1 mm 2 mps 606 mmHg 56%
    14:00 +23°C° 0.5 mm 2 mps 606 mmHg 59%
    15:00 +21°C° 0.5 mm 2 mps 605 mmHg 63%
    16:00 +21°C° 0.5 mm 2 mps 604 mmHg 66%
    17:00 +19°C° 0.6 mm 2 mps 604 mmHg 74%
    18:00 +18°C° 0.6 mm 1 mps 603 mmHg 83%
    19:00 +15°C° 0.6 mm 1 mps 603 mmHg 91%
    20:00 +15°C° 0.4 mm 1 mps 604 mmHg 90%
    21:00 +15°C° 0.4 mm 1 mps 604 mmHg 90%
    22:00 +15°C° 0.4 mm 1 mps 604 mmHg 89%
    23:00 +14°C° 0 mm 1 mps 604 mmHg 88%

    24 February, Saturday

    Time Temperature Precipitation Wind Pressure Humidity
    00:00 +14°C° 0 mm 1 mps 604 mmHg 86%
    01:00 +14°C° 0 mm 1 mps 604 mmHg 85%
    02:00 +14°C° 0 mm 1 mps 603 mmHg 84%
    03:00 +14°C° 0 mm 1 mps 603 mmHg 83%
    04:00 +13°C° 0 mm 1 mps 603 mmHg 82%
    05:00 +13°C° 0 mm 1 mps 603 mmHg 81%
    06:00 +13°C° 0 mm 1 mps 603 mmHg 80%
    07:00 +13°C° 0 mm 1 mps 604 mmHg 79%
    08:00 +16°C° 0 mm 1 mps 605 mmHg 70%
    09:00 +19°C° 0 mm 1 mps 606 mmHg 61%
    10:00 +22°C° 0 mm 1 mps 607 mmHg 53%
    11:00 +21°C° 0.3 mm 2 mps 607 mmHg 55%
    12:00 +21°C° 0.3 mm 2 mps 606 mmHg 56%
    13:00 +23°C° 0.3 mm 2 mps 606 mmHg 58%
    14:00 +21°C° 0.7 mm 2 mps 605 mmHg 62%
    15:00 +20°C° 0.7 mm 2 mps 604 mmHg 65%
    16:00 +20°C° 0.7 mm 2 mps 604 mmHg 69%
    17:00 +18°C° 0.8 mm 2 mps 604 mmHg 77%
    18:00 +18°C° 0.8 mm 1 mps 603 mmHg 84%
    19:00 +15°C° 0.8 mm 1 mps 603 mmHg 92%
    20:00 +14°C° 0.3 mm 1 mps 603 mmHg 91%
    21:00 +14°C° 0.3 mm 1 mps 604 mmHg 90%
    22:00 +14°C° 0.3 mm 1 mps 604 mmHg 89%
    23:00 +14°C° 0.1 mm 1 mps 604 mmHg 88%

    25 February, Sunday

    Time Temperature Precipitation Wind Pressure Humidity
    00:00 +13°C° 0.1 mm 1 mps 604 mmHg 87%
    01:00 +13°C° 0.1 mm 1 mps 603 mmHg 85%
    02:00 +13°C° 0 mm 1 mps 603 mmHg 84%
    03:00 +13°C° 0 mm 1 mps 603 mmHg 83%
    04:00 +13°C° 0 mm 1 mps 603 mmHg 83%
    05:00 +13°C° 0 mm 1 mps 603 mmHg 82%
    06:00 +13°C° 0 mm 1 mps 604 mmHg 82%
    07:00 +13°C° 0 mm 1 mps 604 mmHg 81%
    08:00 +16°C° 0 mm 1 mps 605 mmHg 71%
    09:00 +20°C° 0 mm 1 mps 606 mmHg 61%
    10:00 +22°C° 0 mm 1 mps 608 mmHg 51%
    11:00 +21°C° 0.3 mm 2 mps 607 mmHg 53%
    12:00 +23°C° 0.3 mm 2 mps 607 mmHg 54%
    13:00 +23°C° 0.3 mm 2 mps 606 mmHg 55%
    14:00 +23°C° 0.6 mm 2 mps 605 mmHg 59%
    15:00 +21°C° 0.6 mm 2 mps 605 mmHg 62%
    16:00 +21°C° 0.6 mm 2 mps 604 mmHg 66%
    17:00 +19°C° 0.7 mm 2 mps 604 mmHg 74%
    18:00 +18°C° 0.7 mm 1 mps 604 mmHg 82%
    19:00 +15°C° 0.7 mm 1 mps 604 mmHg 90%
    20:00 +15°C° 0.3 mm 1 mps 604 mmHg 90%
    21:00 +15°C° 0.3 mm 1 mps 604 mmHg 91%
    22:00 +14°C° 0.3 mm 1 mps 605 mmHg 91%
    23:00 +14°C° 0 mm 1 mps 604 mmHg 90%
    Show more